[[{"header":{"parameterUnit":"m.s-1","parameterCategory":1,"la1":30.2991,"la2":30.254,"lo1":-89.0895,"lo2":-89.0444,"dy":0.0017,"dx":0.0017,"nx":28,"ny":28,"refTime":"2023-10-06T21:00:00:Z","depth":0,"parameterNumber":2,"parameterNumberName":"U-component_of_WINDS"},"data":[0,0,0,0,0,0,0,0,0,0,0,0,0,0,0,0,0,0,0,0,0,0,0,0,0,0,0,0,0,0,0,0,0,0,0,0,0,0,0,0,0,0,0,0,0,0,0,0,0,0,0,0,0,0,0,0,0,0,-1.0572,-1.0571,0,-1.0507,-1.0506,-1.0506,-1.0407,-1.0406,-1.0404,-1.0402,-1.0339,-1.0339,-1.0339,0,0,0,0,0,0,0,0,0,0,0,0,0,-1.0612,-1.0611,-1.0572,-1.0571,-1.057,-1.0507,-1.0506,-1.0505,-1.0408,-1.0406,-1.0403,-1.0401,-1.0339,-1.0339,-1.0339,0,0,0,0,0,0,0,0,0,0,0,0,0,-1.0576,-1.0611,-1.0572,-1.0514,-1.0508,-1.0507,-1.0506,-1.0505,-1.0408,-1.0406,-1.0403,-1.04,-1.0339,-1.0339,-1.0339,-1.0391,0,0,-1.0338,-1.0338,0,0,0,0,0,0,0,0,-1.0578,-1.0574,-1.0523,-1.0518,-1.0511,-1.0462,-1.0497,-1.0467,-1.0409,-1.0446,-1.0402,-1.0399,-1.0382,-1.0378,-1.0372,-1.0388,-1.0385,-1.0338,-1.0338,-1.0338,-1.0338,0,0,0,0,0,0,0,-1.058,-1.0576,-1.0546,-1.0522,-1.0515,-1.0491,-1.0483,-1.0491,-1.043,-1.0443,-1.0435,-1.0429,-1.0378,-1.0372,-1.037,-1.0384,-1.0338,-1.0338,-1.0338,-1.0338,-1.0438,-1.0441,0,0,0,0,0,0,-1.0591,-1.0579,-1.0548,-1.0544,-1.0538,-1.0493,-1.0484,-1.0481,-1.0429,-1.0419,-1.0431,-1.0425,-1.0374,-1.037,-1.0367,-1.0425,-1.0338,-1.0338,-1.0338,-1.0436,-1.0439,-1.0442,0,0,0,0,0,0,-1.0592,-1.0589,-1.0551,-1.056,-1.0553,-1.0495,-1.0492,-1.0481,-1.0475,-1.0421,-1.041,-1.0436,-1.0372,-1.0367,-1.0385,-1.0421,-1.0338,-1.0338,-1.0432,-1.0437,-1.044,-1.054,0,0,0,0,0,0,-1.0594,-1.059,-1.0609,-1.0561,-1.0553,-1.057,-1.0494,-1.0482,-1.0475,-1.0465,-1.0422,-1.0413,-1.0369,-1.0386,-1.0385,-1.042,-1.0338,-1.0429,-1.0434,-1.0439,-1.0534,-1.0547,-1.0559,0,0,0,0,0,-1.0596,-1.0641,-1.0611,-1.0608,-1.0575,-1.0572,-1.0567,-1.0516,-1.0478,-1.0497,-1.0462,-1.0414,-1.0417,-1.0389,-1.0387,-1.0422,-1.0427,-1.0433,-1.0439,-1.0528,-1.0545,-1.0559,0,0,0,0,0,0,-1.0696,-1.0633,-1.0599,-1.063,-1.0607,-1.0555,-1.0578,-1.0535,-1.0523,-1.0515,-1.0452,-1.0443,-1.0469,-1.0447,-1.0416,-1.0469,-1.0414,-1.0421,-1.0483,-1.0498,-1.0511,-1.0516,-1.0338,0,0,0,0,0,-1.0722,-1.0724,-1.0669,-1.0701,-1.0691,-1.0637,-1.0633,-1.0595,-1.0569,-1.0559,-1.0526,-1.0503,-1.0498,-1.0497,-1.049,-1.0529,-1.0519,-1.0552,-1.0565,-1.0576,-1.0582,-1.0602,-1.0616,-1.0462,-1.0462,-1.0462,0,0,-1.0775,-1.0741,-1.0746,-1.072,-1.0698,-1.0702,-1.0629,-1.0637,-1.0639,-1.056,-1.0575,-1.055,-1.052,-1.0549,-1.056,-1.0531,-1.0622,-1.0584,-1.0593,-1.0593,-1.0609,-1.0624,-1.0637,-1.0466,-1.0465,-1.0465,0,0,-1.0874,-1.0848,-1.0872,-1.0851,-1.0817,-1.078,-1.0786,-1.0741,-1.0721,-1.0734,-1.0675,-1.0677,-1.0671,-1.0652,-1.0642,-1.0732,-1.0688,-1.0732,-1.0799,-1.0818,-1.083,-1.0841,-1.0874,-1.0886,-1.0738,-1.0738,-1.0738,0,-1.0944,-1.0948,-1.089,-1.0901,-1.0891,-1.0819,-1.0843,-1.0825,-1.0792,-1.0787,-1.0755,-1.0745,-1.072,-1.0744,-1.0766,-1.0759,-1.0764,-1.0737,-1.0833,-1.0843,-1.0852,-1.0883,-1.0895,-1.0744,-1.0743,-1.0743,-1.0742,0,-1.1036,-1.1039,-1.1062,-1.1031,-1.1024,-1.1042,-1.0987,-1.0987,-1.0949,-1.0916,-1.093,-1.0897,-1.0882,-1.0884,-1.0848,-1.0903,-1.0886,-1.0845,-1.0789,-1.0873,-1.0901,-1.0912,-1.0752,-1.075,-1.0748,-1.0747,0,0,-1.1198,-1.1133,-1.1143,-1.1128,-1.1085,-1.1087,-1.1101,-1.1085,-1.1086,-1.1065,-1.1076,-1.1071,-1.1032,-1.1021,-1.0981,-1.0998,-1.1073,-1.0954,-1.0953,-1.0978,-1.1131,-1.1164,-1.1178,-1.1043,-1.1045,-1.1046,-1.1134,0,-1.1289,-1.1309,-1.1257,-1.129,-1.1293,-1.1223,-1.1235,-1.1211,-1.118,-1.1178,-1.1143,-1.1141,-1.109,-1.1082,-1.1096,-1.1061,-1.1103,-1.1054,-1.1053,-1.1054,-1.1064,-1.1193,-1.1227,-1.1312,-1.1144,-1.1146,-1.1148,0,-1.1398,-1.1382,-1.1416,-1.137,-1.1369,-1.1381,-1.1362,-1.1361,-1.1331,-1.1308,-1.1294,-1.1248,-1.1259,-1.1204,-1.1218,-1.1186,-1.1182,-1.1165,-1.1167,-1.1166,-1.1107,-1.1196,-1.1337,-1.1351,-1.1164,-1.1163,-1.1161,0,-1.1514,-1.15,-1.1518,-1.1507,-1.1455,-1.1465,-1.1444,-1.1412,-1.1405,-1.1389,-1.1384,-1.137,-1.1362,-1.1352,-1.1303,-1.1267,-1.1323,-1.1265,-1.1305,-1.1306,-1.1321,-1.1321,-1.1465,-1.1317,-1.1317,-1.1317,-1.1316,0,-1.1622,-1.1645,-1.157,-1.1581,-1.1605,-1.1545,-1.157,-1.1542,-1.1514,-1.1519,-1.1458,-1.1464,-1.1398,-1.1397,-1.1359,-1.1377,-1.1374,-1.1355,-1.1345,-1.1361,-1.1364,-1.1359,-1.1352,-1.132,-1.1319,-1.1318,-1.1318,0,-1.1756,-1.1706,-1.1721,-1.167,-1.1657,-1.1678,-1.1634,-1.1642,-1.1607,-1.1614,-1.1612,-1.1557,-1.1552,-1.1502,-1.1486,-1.146,-1.1494,-1.1472,-1.1504,-1.1497,-1.154,-1.1538,-1.1687,-1.1704,-1.1545,-1.1547,-1.1548,0,-1.1828,-1.1845,-1.1795,-1.1793,-1.1775,-1.1773,-1.1766,-1.1707,-1.1702,-1.1669,-1.1682,-1.1672,-1.1661,-1.1657,-1.1616,-1.1604,-1.1582,-1.1635,-1.158,-1.1596,-1.1584,-1.1584,-1.1586,-1.1648,-1.165,-1.1651,-1.1653,0,-1.1963,-1.1937,-1.1929,-1.1912,-1.1905,-1.1889,-1.187,-1.1872,-1.1807,-1.1805,-1.1799,-1.179,-1.1774,-1.1765,-1.1746,-1.1724,-1.1678,-1.167,-1.1679,-1.1696,-1.1715,-1.1706,-1.1537,-1.1667,-1.1666,-1.1665,-1.1664,-1.1663,-1.2069,-1.208,-1.2046,-1.2039,-1.2018,-1.2001,-1.2006,-1.1971,-1.1965,-1.1946,-1.1912,-1.1911,-1.1881,-1.1849,-1.1831,-1.183,-1.1803,-1.1816,-1.1819,-1.1823,-1.1833,-1.1714,-1.1827,-1.1826,-1.1826,-1.1825,-1.1825,0,-1.2201,-1.2175,-1.2169,-1.2143,-1.2138,-1.2093,-1.2069,-1.2068,-1.2068,-1.2043,-1.2033,-1.2026,-1.2017,-1.1975,-1.1961,-1.1969,-1.1947,-1.1967,-1.1967,-1.1963,-1.1857,-1.1852,-1.1985,-1.1985,-1.1985,-1.1985,-1.1985,-1.1985,-1.2269,-1.2285,-1.2256,-1.2261,-1.2235,-1.2234,-1.2224,-1.2208,-1.2187,-1.2183,-1.2174,-1.2146,-1.2114,-1.2098,-1.2088,-1.2075,-1.2074,-1.2101,-1.2082,-1.1985,-1.197,-1.1955,-1.195,-1.2101,-1.2101,-1.2187,-1.2188,-1.2189]},{"header":{"parameterUnit":"m.s-1","parameterCategory":1,"la1":30.2991,"la2":30.254,"lo1":-89.0895,"lo2":-89.0444,"dy":0.0017,"dx":0.0017,"nx":28,"ny":28,"refTime":"2023-10-06T21:00:00:Z","depth":0,"parameterNumber":3,"parameterNumberName":"V-component_of_WINDS"},"data":[0,0,0,0,0,0,0,0,0,0,0,0,0,0,0,0,0,0,0,0,0,0,0,0,0,0,0,0,0,0,0,0,0,0,0,0,0,0,0,0,0,0,0,0,0,0,0,0,0,0,0,0,0,0,0,0,0,0,1.9819,1.9819,0,1.9766,1.9766,1.9765,1.9774,1.9775,1.9776,1.9777,1.9716,1.9713,1.9711,0,0,0,0,0,0,0,0,0,0,0,0,0,1.992,1.9918,1.9819,1.9819,1.9818,1.9766,1.9766,1.9765,1.9774,1.9775,1.9776,1.9777,1.9717,1.9714,1.9711,0,0,0,0,0,0,0,0,0,0,0,0,0,1.9872,1.9917,1.9819,1.9816,1.9815,1.9767,1.9766,1.9765,1.9773,1.9775,1.9776,1.9777,1.9718,1.9714,1.971,1.9659,0,0,1.9699,1.9697,0,0,0,0,0,0,0,0,1.9875,1.9869,1.9817,1.9816,1.9815,1.9778,1.9779,1.9729,1.9773,1.9789,1.9777,1.9778,1.9735,1.973,1.9717,1.9656,1.9654,1.9698,1.9696,1.9695,1.9694,0,0,0,0,0,0,0,1.9878,1.9871,1.9798,1.9817,1.9815,1.9815,1.981,1.977,1.9755,1.9788,1.9788,1.9782,1.9735,1.972,1.9715,1.9653,1.9699,1.9695,1.9693,1.9692,1.9543,1.9542,0,0,0,0,0,0,1.9884,1.9874,1.98,1.9797,1.985,1.9812,1.9806,1.9789,1.9755,1.9752,1.9781,1.9783,1.9726,1.972,1.9713,1.9648,1.9695,1.9691,1.9689,1.9545,1.9543,1.9541,0,0,0,0,0,0,1.9886,1.9877,1.9802,1.9835,1.9826,1.9809,1.9789,1.9787,1.9773,1.975,1.9747,1.977,1.9727,1.9718,1.9672,1.9646,1.9689,1.9686,1.9547,1.9544,1.9542,1.952,0,0,0,0,0,0,1.9889,1.9878,1.986,1.9835,1.9824,1.9764,1.9788,1.9785,1.9767,1.9769,1.9739,1.9735,1.9727,1.9678,1.9668,1.9642,1.9683,1.9549,1.9546,1.9543,1.9522,1.9517,1.9512,0,0,0,0,0,1.9892,1.9856,1.9859,1.985,1.9802,1.9763,1.9756,1.975,1.9765,1.9745,1.9731,1.9736,1.9651,1.9673,1.9662,1.9634,1.9551,1.9547,1.9543,1.9525,1.9518,1.9512,0,0,0,0,0,0,1.9877,1.9852,1.9856,1.9811,1.9789,1.9764,1.974,1.9743,1.9715,1.9718,1.9709,1.9702,1.9655,1.964,1.9665,1.9581,1.9602,1.9596,1.9592,1.9585,1.958,1.9583,1.968,0,0,0,0,0,1.9869,1.9841,1.982,1.9782,1.9771,1.9757,1.974,1.9737,1.9713,1.9704,1.9685,1.966,1.9627,1.9606,1.9575,1.9521,1.9512,1.9496,1.9491,1.9486,1.948,1.9447,1.9438,1.9528,1.9528,1.9528,0,0,1.985,1.9834,1.9816,1.9778,1.9761,1.973,1.9749,1.9716,1.9692,1.9698,1.9653,1.9638,1.9609,1.9558,1.9534,1.9544,1.9454,1.9482,1.9478,1.9474,1.9442,1.9433,1.9426,1.9526,1.9526,1.9527,0,0,1.9801,1.9787,1.9752,1.9734,1.9708,1.9699,1.969,1.9665,1.9656,1.9611,1.9613,1.9583,1.9528,1.9506,1.9487,1.9427,1.9429,1.9417,1.9387,1.9354,1.9347,1.9341,1.9315,1.9307,1.9411,1.9411,1.9411,0,1.9781,1.9736,1.9733,1.9699,1.968,1.9686,1.9648,1.963,1.9594,1.958,1.9592,1.9521,1.9502,1.9444,1.9429,1.9415,1.9402,1.9419,1.9349,1.9342,1.9336,1.9312,1.9303,1.941,1.941,1.941,1.941,0,1.9711,1.968,1.9654,1.9621,1.9599,1.9564,1.9552,1.953,1.9529,1.9517,1.9469,1.9446,1.9409,1.9395,1.9393,1.9335,1.9341,1.9352,1.9372,1.9326,1.9303,1.9294,1.9407,1.9408,1.9409,1.9409,0,0,1.9651,1.9615,1.9605,1.9588,1.9559,1.9533,1.9496,1.9461,1.9441,1.9416,1.9381,1.9334,1.9342,1.9321,1.9316,1.9288,1.9236,1.93,1.9299,1.9286,1.9166,1.9157,1.9146,1.9238,1.9236,1.9235,1.9167,0,1.9596,1.9533,1.9527,1.9469,1.9437,1.9441,1.9408,1.9384,1.9372,1.9341,1.9327,1.9292,1.9307,1.9294,1.9266,1.9248,1.9211,1.9254,1.9202,1.9201,1.9207,1.9135,1.9125,1.9063,1.9159,1.9157,1.9156,0,1.9524,1.9497,1.9436,1.9408,1.9394,1.9365,1.9331,1.9303,1.9275,1.9267,1.9243,1.9241,1.9199,1.9223,1.9162,1.919,1.9169,1.9157,1.9154,1.9147,1.9174,1.9122,1.9043,1.9032,1.9142,1.9143,1.9144,0,1.9482,1.943,1.9386,1.9372,1.9339,1.9318,1.9303,1.9277,1.9255,1.9224,1.9209,1.9173,1.9153,1.9123,1.911,1.9129,1.9048,1.9072,1.9037,1.9037,1.9019,1.9019,1.8931,1.901,1.901,1.901,1.901,0,1.942,1.9381,1.9366,1.9339,1.9294,1.9287,1.9243,1.9228,1.9204,1.9171,1.9172,1.914,1.9127,1.9092,1.9081,1.903,1.9021,1.9011,1.9008,1.9009,1.901,1.8993,1.8996,1.9008,1.9008,1.9009,1.9009,0,1.9365,1.9354,1.9305,1.9278,1.927,1.9238,1.9213,1.9184,1.9172,1.913,1.912,1.9099,1.9058,1.9043,1.8992,1.8985,1.8924,1.8927,1.8934,1.8933,1.8898,1.89,1.8793,1.8777,1.8869,1.8868,1.8868,0,1.9325,1.9295,1.9264,1.9243,1.9228,1.9194,1.9172,1.9162,1.9139,1.9103,1.9077,1.9037,1.9004,1.8937,1.8915,1.8875,1.8874,1.884,1.8868,1.8869,1.8869,1.887,1.8865,1.8834,1.8833,1.8832,1.8831,0,1.9254,1.9249,1.9218,1.9184,1.9158,1.913,1.9104,1.9085,1.9072,1.9044,1.9003,1.8977,1.8925,1.8883,1.8842,1.8823,1.8822,1.8823,1.8812,1.8812,1.8816,1.8809,1.8916,1.8825,1.8825,1.8826,1.8826,1.8826,1.9202,1.9175,1.9149,1.9113,1.9092,1.9066,1.9037,1.9021,1.8987,1.8945,1.8941,1.8896,1.8864,1.8809,1.8788,1.8749,1.8758,1.8743,1.8739,1.8735,1.873,1.8824,1.8742,1.8742,1.8742,1.8742,1.8743,0,1.9129,1.9111,1.9079,1.9041,1.9012,1.9018,1.8988,1.8962,1.8922,1.8894,1.8862,1.8811,1.877,1.8745,1.8702,1.8676,1.8674,1.8665,1.8665,1.8659,1.8727,1.8739,1.8666,1.8666,1.8666,1.8666,1.8666,1.8666,1.9087,1.9039,1.9031,1.8972,1.8954,1.8911,1.8892,1.8867,1.8844,1.8789,1.8755,1.874,1.8711,1.8666,1.8627,1.862,1.8603,1.8591,1.8585,1.8648,1.8655,1.8663,1.8674,1.8589,1.8588,1.852,1.8519,1.8519]}]]